Theta_e
306 306 306 305 305 305 305 305 305 305 304 304 304 303 303 302 302 301 300 300 299 299 298 298 297 297 297 297 297 296 296 296 296 296 296 297 296 297 297 297 297 297 297 297 297 297 297 297 297 297 296 297 297 297 298 298 298 298 298 298 298 298 298 297 296 296 297 298 299 301 301 301 301 301 300 300 300 300 300 300 301 301 301 301 302
305 305 305 305 305 305 305 304 304 304 303 303 303 302 302 301 300 299 299 299 298 297 297 296 295 295 295 295 294 294 294 294 294 294 294 293 293 293 293 293 293 293 293 294 293 293 293 293 294 294 293 293 293 293 294 294 294 294 295 295 296 297 297 297 296 295 296 297 298 300 301 301 302 302 301 301 301 301 301 301 301 301 301 301 301
304 304 304 304 304 304 304 304 303 302 302 302 302 301 301 300 299 299 298 297 297 296 296 295 295 294 294 293 293 292 292 292 292 292 292 292 292 291 291 290 291 291 291 291 291 290 290 291 291 291 291 291 291 291 291 291 291 292 292 292 292 293 294 295 295 295 294 295 295 297 298 299 300 301 302 302 302 301 301 302 301 301 301 301 301
303 303 303 304 304 303 303 302 302 302 301 301 300 300 299 299 298 298 297 297 296 295 295 294 294 293 293 292 291 291 290 290 290 290 290 291 291 290 290 290 290 289 289 289 289 289 289 289 289 289 289 290 290 290 290 290 290 290 290 290 290 290 291 292 293 293 293 293 293 294 294 295 296 297 298 299 300 300 300 300 301 301 301 302 302
302 302 302 303 303 302 302 301 301 301 300 299 299 298 298 297 297 297 296 296 295 294 294 293 293 292 291 290 290 290 289 289 289 289 289 289 289 290 290 290 289 289 289 289 289 289 289 288 288 288 288 288 289 289 289 288 288 288 288 288 288 289 289 290 291 291 292 292 292 292 292 292 293 294 294 295 296 297 298 298 299 299 299 300 300
302 302 301 301 301 301 301 301 300 299 298 298 297 296 296 295 295 295 294 294 293 293 293 292 292 291 290 289 289 289 288 288 288 288 288 288 288 288 289 288 289 288 288 288 288 288 288 287 288 288 288 288 288 288 288 288 288 288 288 288 288 289 289 289 290 290 290 290 290 290 291 291 291 292 292 293 293 294 295 295 296 296 297 297 298
301 300 300 300 300 300 300 299 299 298 297 296 295 295 294 294 293 292 292 292 292 292 292 291 290 290 289 289 288 288 287 287 287 287 286 286 286 286 287 287 287 287 287 287 287 287 287 286 286 286 286 286 287 287 288 288 288 288 288 288 288 288 288 289 289 289 288 288 288 289 289 289 290 290 291 291 291 292 292 293 294 293 293 294 295
299 299 298 299 299 299 299 297 297 296 295 294 294 293 293 292 291 290 290 290 290 290 289 289 289 288 288 288 287 286 286 286 286 285 285 285 285 285 285 285 285 286 286 286 285 285 285 285 285 285 284 284 285 285 286 286 287 287 287 288 288 288 287 287 287 287 287 287 287 287 287 287 287 288 289 289 290 291 291 292 292 291 291 291 292
298 298 297 298 298 297 296 295 295 294 293 293 292 292 291 290 289 289 289 288 288 288 288 287 287 287 287 286 286 285 285 285 284 284 283 283 283 284 284 285 285 285 285 285 285 284 284 284 284 283 283 282 282 282 283 283 284 284 285 285 285 286 286 286 286 286 285 285 285 285 285 285 285 286 286 286 287 289 289 290 290 290 290 290 290
297 297 296 296 295 294 294 294 293 292 291 291 290 290 289 288 288 288 288 287 287 287 286 286 286 286 285 285 285 285 284 284 283 283 283 282 282 283 283 284 284 284 284 284 283 283 283 283 283 283 282 282 282 281 281 281 281 281 281 281 281 281 282 282 283 282 282 283 283 283 283 284 284 285 285 286 287 288 288 289 290 290 290 291 291
296 295 295 294 292 292 292 292 291 290 290 289 288 288 287 287 287 287 287 287 286 286 285 285 285 284 284 284 284 284 284 283 283 282 282 282 281 282 282 282 282 282 281 281 281 281 282 282 282 282 282 281 281 281 281 280 280 279 279 279 279 280 280 280 280 280 280 281 281 281 281 282 283 284 285 286 287 288 288 288 288 288 289 289 290
294 294 293 291 290 291 291 290 289 289 288 288 288 287 287 287 287 286 286 285 285 284 284 284 284 283 283 283 283 283 282 282 282 282 282 281 281 281 281 281 280 280 279 279 279 279 279 279 279 279 279 279 279 279 279 279 279 279 279 279 278 278 278 278 279 279 279 279 279 279 279 280 281 282 283 284 285 285 286 286 286 286 286 287 287
293 292 290 290 290 290 289 288 288 288 288 287 287 286 286 286 285 285 284 284 284 284 283 283 283 283 282 282 282 282 281 281 281 281 281 281 281 281 280 280 279 278 278 277 277 277 277 277 276 276 276 276 276 276 276 276 276 277 277 277 277 276 276 276 277 277 277 277 278 278 279 279 279 280 280 281 281 281 282 282 283 284 284 284 285
291 290 289 289 289 289 288 288 287 287 286 286 285 285 284 284 283 283 283 283 283 283 283 282 282 282 282 281 281 281 280 280 280 280 280 279 279 279 278 278 277 277 276 276 276 276 275 274 274 274 273 273 273 273 273 274 275 275 275 275 276 276 276 276 276 276 276 277 277 278 278 278 279 279 279 279 279 279 280 281 281 282 282 283 283
289 288 288 288 288 288 287 287 286 286 285 284 284 283 283 283 282 282 282 282 282 281 281 281 281 281 280 280 280 280 279 279 279 279 278 278 278 278 277 277 276 276 276 275 275 274 273 273 272 272 272 272 272 272 273 274 274 274 274 274 274 274 274 275 275 276 276 275 276 276 276 276 277 277 277 278 279 279 279 280 280 281 281 281 281
288 288 288 288 287 287 286 285 285 284 283 283 283 282 282 282 282 281 281 281 281 281 280 280 280 279 279 279 279 278 278 278 278 278 277 277 277 277 276 276 275 275 274 274 274 273 272 272 272 272 271 271 272 273 273 273 273 272 272 272 272 272 272 272 273 274 274 274 274 274 275 275 275 275 275 275 276 276 277 278 278 279 279 279 280
287 287 287 287 286 285 284 283 283 282 282 282 282 281 281 281 281 281 280 280 280 280 280 279 279 279 278 278 278 278 278 277 277 277 276 276 275 275 274 274 274 274 274 273 273 273 272 271 271 271 271 271 271 271 271 271 271 270 270 270 270 270 270 270 271 271 271 271 271 271 272 272 272 272 273 273 273 273 275 276 276 276 276 277 278
287 286 286 285 284 283 283 282 281 281 281 281 281 280 280 280 280 280 280 280 279 279 279 279 278 278 278 278 277 277 277 277 276 276 275 274 274 274 274 273 273 273 273 273 272 271 271 270 270 270 269 269 270 270 270 270 269 269 269 268 268 268 268 268 268 269 269 269 268 268 269 269 270 270 271 271 271 271 273 274 275 275 274 274 275
285 285 284 283 282 282 281 281 280 280 280 280 280 280 280 280 280 279 279 279 279 278 278 278 278 278 278 277 277 276 276 276 275 275 274 274 273 273 273 273 273 272 271 271 270 270 269 269 269 268 268 268 268 268 268 268 268 267 267 267 266 266 266 266 267 267 267 267 267 267 267 267 268 268 269 269 269 269 270 271 273 273 272 270 271
284 283 283 282 281 281 280 280 280 280 280 280 279 279 279 279 279 279 279 279 278 278 278 278 277 277 277 276 276 275 275 275 275 274 274 273 272 272 271 271 271 270 270 269 268 268 267 267 266 267 267 266 267 267 267 267 266 266 266 266 265 265 265 266 266 266 266 266 266 266 266 266 266 266 267 267 267 268 268 269 270 270 268 267 268
282 282 281 281 280 280 280 280 279 279 279 279 279 279 279 279 279 278 278 278 278 278 277 277 277 276 276 275 275 274 274 274 274 273 273 272 271 270 269 269 269 268 268 268 267 266 266 265 265 265 265 265 265 265 266 266 265 265 265 264 264 264 265 265 265 265 265 265 265 265 265 265 265 265 265 265 266 266 267 267 268 268 267 267 266
281 281 280 280 280 279 279 279 279 279 279 279 279 279 278 278 278 278 278 277 277 277 276 276 275 275 274 274 274 274 273 273 273 272 271 270 269 268 268 268 268 267 267 266 265 265 265 264 264 264 264 264 264 264 264 264 264 264 263 263 263 264 264 264 265 265 265 265 265 265 264 264 264 264 264 264 264 264 265 265 266 266 266 266 266
280 280 280 280 279 279 279 279 279 279 279 279 279 278 278 278 278 278 277 277 276 276 275 275 275 274 274 274 273 273 272 272 271 271 270 269 268 267 267 267 266 266 265 265 264 264 264 263 263 263 263 263 263 263 263 263 263 263 263 263 263 263 263 264 264 264 264 264 264 264 264 263 263 263 263 263 263 263 263 263 264 264 265 265 266
280 280 279 279 279 279 279 279 279 279 279 278 278 278 278 277 277 277 277 276 275 275 274 274 274 273 273 273 272 272 271 271 270 269 269 268 267 265 265 265 265 265 264 264 264 263 263 263 263 263 263 263 263 263 263 263 263 263 263 262 262 263 263 263 263 263 263 263 263 263 263 263 262 262 262 261 261 262 262 262 263 263 263 263 264
280 279 279 279 279 279 278 278 278 278 278 278 278 277 277 277 276 276 276 275 274 274 274 273 273 272 272 272 271 271 270 269 269 267 267 266 265 264 264 265 264 264 264 263 263 263 263 264 264 263 263 263 263 263 263 263 263 263 262 262 262 262 262 262 262 262 262 262 262 262 262 262 261 261 261 261 261 261 261 262 262 263 262 262 263
279 279 279 279 278 278 278 278 278 278 277 277 277 276 276 276 275 275 274 274 273 273 273 272 272 271 271 271 270 269 268 267 267 266 265 264 263 263 264 264 264 263 263 263 263 262 263 264 263 263 263 262 262 262 262 262 262 262 262 262 262 261 261 261 261 261 261 261 261 261 261 261 261 261 261 261 261 261 260 260 260 261 261 260 261
279 278 278 278 278 278 278 278 277 277 277 276 276 276 275 275 274 273 273 273 272 272 272 272 271 270 270 269 268 267 267 266 265 265 264 263 262 263 264 264 263 263 262 262 262 262 263 263 263 262 262 262 262 262 262 262 262 262 262 261 261 261 261 260 260 260 260 260 260 260 261 261 261 261 261 261 261 261 259 258 258 259 259 258 258
278 278 278 278 278 277 277 277 277 276 276 275 275 275 274 273 273 272 272 272 272 271 271 270 269 267 267 267 267 267 267 266 265 264 263 263 262 263 263 263 263 263 262 262 262 262 262 262 262 262 262 262 263 263 263 263 262 262 261 261 261 261 260 260 260 260 260 260 260 260 260 261 261 261 261 261 261 260 259 258 257 257 257 257 257
278 277 277 277 277 277 276 276 276 276 275 275 274 273 273 273 272 272 271 271 271 270 269 268 267 266 266 267 266 266 266 266 264 263 262 262 263 263 263 262 263 262 262 262 262 262 262 262 262 262 262 262 262 262 262 262 262 261 261 261 261 261 260 260 260 260 260 260 259 260 260 260 260 260 260 260 260 260 258 257 257 257 257 256 257
277 277 277 276 276 276 275 275 275 275 275 274 273 272 272 272 272 272 271 270 269 268 268 267 266 266 267 267 266 265 265 264 263 262 262 263 263 263 263 262 262 262 262 262 262 262 262 262 262 262 262 262 262 262 262 262 261 261 261 261 261 260 260 260 260 260 260 260 259 260 260 260 260 259 259 259 259 259 258 258 257 257 257 256 256
276 276 276 276 275 275 275 275 274 274 273 273 272 272 271 271 271 270 270 269 268 268 268 267 267 266 266 266 266 265 264 263 263 263 263 263 263 263 262 262 262 262 262 262 262 262 262 262 262 262 262 262 261 261 261 261 261 261 260 260 261 260 260 260 260 260 260 260 260 260 260 260 259 259 258 258 258 258 258 258 257 257 256 256 256
276 276 275 275 274 274 273 273 273 272 272 272 272 272 272 271 270 269 269 269 268 268 268 267 267 266 266 265 265 264 264 264 263 263 263 263 263 262 261 261 262 262 261 261 262 261 261 262 262 262 261 261 261 261 261 260 260 260 260 260 260 260 260 260 260 260 260 260 260 260 260 259 259 259 259 258 258 257 258 257 257 257 256 256 256
275 275 274 273 273 273 272 272 271 271 271 271 271 271 271 271 270 269 269 268 268 267 267 267 266 266 265 264 264 263 263 263 263 263 263 263 262 261 261 261 262 261 261 261 261 261 261 261 261 261 261 261 261 260 260 260 260 260 260 260 260 260 260 260 260 259 260 259 259 259 259 259 259 259 259 258 258 257 257 257 257 257 256 256 256
274 273 272 272 272 271 271 271 270 270 270 270 270 270 270 270 270 270 269 269 268 267 266 265 265 265 264 264 263 263 263 263 263 263 263 262 262 261 261 262 262 261 261 261 261 261 261 261 261 261 261 260 260 260 260 260 260 260 260 260 260 260 260 260 259 259 259 259 259 259 259 259 259 258 258 258 258 257 257 257 256 256 256 256 256
272 272 271 271 271 270 270 270 270 269 269 269 269 269 269 269 269 269 268 268 267 266 265 264 264 264 264 264 264 263 263 263 262 262 262 262 262 261 262 262 262 261 261 261 261 261 261 261 261 261 261 260 260 260 260 260 260 260 260 260 260 260 260 259 259 259 259 259 259 259 259 258 258 258 258 257 257 257 256 256 256 256 256 256 256
271 271 271 270 270 270 269 269 269 269 269 269 268 268 268 268 268 267 267 266 266 265 265 264 264 263 263 263 263 263 263 263 262 262 262 262 262 262 262 262 262 262 261 261 261 261 261 261 261 261 260 260 260 260 260 260 260 260 260 259 259 259 259 259 259 259 259 259 258 258 258 258 258 258 257 257 257 256 256 256 256 256 256 256 256
271 271 270 270 269 269 268 268 268 268 268 268 268 267 267 267 266 266 265 265 264 264 264 264 264 263 263 263 263 263 263 263 262 262 262 261 262 262 262 262 261 261 261 261 261 261 261 261 261 261 260 260 260 260 260 260 260 260 260 259 259 259 259 259 259 258 258 258 258 258 258 258 258 258 257 257 257 256 256 256 256 256 256 256 256
270 270 269 269 268 268 268 268 268 268 267 267 267 266 266 266 265 264 264 264 263 263 263 263 263 263 263 262 262 262 262 263 263 262 262 262 262 262 262 262 261 261 261 261 261 260 260 261 261 260 260 260 260 260 260 260 259 259 259 259 259 259 259 259 259 258 258 258 258 258 258 258 258 258 257 257 257 256 256 255 256 256 256 256 256
269 269 268 268 268 268 268 268 268 267 267 266 266 265 265 265 264 263 263 263 263 263 263 263 263 263 262 262 262 262 262 262 262 262 262 262 262 262 261 261 261 261 261 261 261 261 261 261 261 260 260 260 260 260 260 259 259 259 259 259 259 259 259 259 259 258 258 258 258 258 258 258 258 257 257 257 257 256 255 255 256 256 256 256 256
268 268 268 268 267 268 268 267 267 267 266 266 265 264 264 264 263 263 263 263 263 263 263 263 263 262 262 262 261 261 261 262 262 262 262 262 262 262 261 261 261 261 261 261 261 261 261 261 261 261 260 260 260 260 260 259 259 259 259 259 259 259 259 259 258 258 258 257 257 257 257 257 257 257 257 257 257 256 255 256 256 256 256 256 256
268 267 267 267 267 267 267 267 266 266 265 265 264 263 263 263 262 262 262 262 262 262 262 262 262 262 262 261 261 261 261 261 261 261 261 261 262 262 261 261 261 261 261 261 261 261 261 261 261 261 261 260 260 260 260 260 259 259 259 259 259 259 259 259 258 258 257 257 256 256 256 257 257 256 257 257 256 255 255 256 256 256 256 256 256
267 267 267 267 267 267 266 266 265 265 264 264 263 263 263 262 262 262 262 262 262 262 262 262 262 262 261 261 261 261 261 261 261 261 261 261 261 261 261 261 261 261 261 261 261 261 261 261 261 261 261 261 260 260 260 260 260 259 259 259 259 258 258 258 258 258 257 256 256 256 256 256 256 256 255 255 255 255 256 256 257 256 256 256 256
267 267 266 266 266 266 265 265 265 264 263 263 263 262 262 262 262 262 262 262 262 261 261 261 261 261 261 261 261 261 261 261 261 261 261 261 261 261 261 261 261 261 261 261 261 261 261 261 261 261 261 261 261 260 260 260 260 259 259 259 259 258 258 258 258 258 257 256 256 256 256 255 255 255 255 255 255 255 256 256 256 256 256 256 256
266 266 266 266 266 265 265 264 264 263 263 262 262 262 262 261 261 261 261 261 261 261 261 261 261 261 261 261 261 261 261 261 261 261 261 261 261 261 261 261 261 261 261 261 261 261 261 261 261 261 261 261 261 261 260 260 260 260 259 259 259 259 258 258 258 257 256 256 256 255 255 254 254 254 254 255 255 255 256 256 256 256 256 256 256
266 266 265 265 265 265 264 264 263 263 262 262 262 262 262 261 261 261 261 261 261 261 261 261 261 261 261 261 261 261 261 261 261 261 261 261 261 261 261 261 261 261 261 261 261 261 261 261 261 261 261 261 261 261 261 261 260 260 260 259 259 259 258 258 258 257 256 256 255 254 254 254 253 254 254 255 255 256 256 256 256 256 256 256 256
265 265 265 265 264 264 264 263 263 262 262 262 262 262 262 261 261 260 260 260 260 260 260 261 261 261 261 261 261 261 261 261 261 261 261 261 261 261 261 261 261 261 261 261 261 261 261 261 261 261 261 261 261 261 261 261 261 260 260 259 259 259 259 258 258 257 257 255 254 254 253 253 254 254 255 255 256 256 257 257 256 256 256 256 256
265 264 264 264 264 264 263 263 262 262 262 262 262 261 261 261 261 260 260 260 260 260 260 260 260 261 261 260 260 261 261 261 261 261 261 261 261 261 261 261 261 261 261 261 262 261 261 261 261 261 261 261 261 261 261 261 261 261 260 260 260 259 259 259 258 258 257 255 254 254 254 254 254 255 255 256 256 257 257 256 256 256 256 256 256
264 264 264 264 263 263 263 262 262 262 262 261 261 261 261 261 261 260 260 260 260 260 260 260 260 260 260 260 260 260 260 261 261 261 261 261 261 261 261 261 261 261 261 261 262 262 261 261 261 261 261 261 261 261 261 261 261 261 260 260 260 259 259 259 258 257 256 255 255 255 254 254 255 255 256 256 257 257 257 256 256 256 256 256 256
264 264 264 263 263 263 262 262 262 262 261 261 261 261 261 260 260 260 260 260 260 260 260 260 260 260 260 260 260 260 260 260 261 261 261 261 261 261 261 261 261 261 261 261 262 262 261 261 261 261 261 261 261 261 261 261 261 261 260 260 260 260 259 259 258 257 257 256 256 256 255 256 256 256 256 256 257 257 256 256 256 256 256 256 256
264 263 263 263 263 262 262 262 261 261 261 261 261 261 260 260 260 260 260 260 260 260 260 260 260 260 260 260 260 260 260 260 260 261 261 261 261 261 261 261 261 261 261 261 261 261 261 261 261 261 261 261 261 261 261 261 261 261 260 260 260 260 259 259 258 258 258 257 256 256 256 257 257 257 257 256 257 257 256 256 256 256 256 256 256
263 263 263 262 262 262 262 262 261 261 261 260 260 260 260 260 260 260 260 260 260 260 260 260 260 260 260 260 260 260 260 260 260 260 261 261 261 261 261 261 261 261 261 261 261 261 261 261 261 261 261 261 261 261 261 261 261 261 261 260 260 259 259 259 259 259 258 257 257 257 257 257 257 257 257 257 257 257 256 256 256 256 256 256 256
Wind_Speed
4 5 7 8 8 9 11 11 12 13 13 14 15 16 16 17 18 18 17 18 18 19 19 20 20 20 20 20 21 21 21 20 20 20 20 19 19 19 19 19 19 19 19 20 21 22 22 22 23 24 24 25 25 26 26 26 26 26 25 26 26 26 28 29 34 40 41 39 42 45 45 46 49 48 48 50 49 48 48 47 45 45 45 45 45
4 5 6 7 8 9 10 10 11 11 12 13 15 16 16 17 17 16 17 18 18 19 20 20 20 20 20 21 21 22 22 22 22 22 21 21 21 21 22 22 22 22 22 23 23 24 24 24 24 24 25 25 25 26 26 27 27 28 27 27 28 27 27 29 32 37 41 40 40 42 42 42 45 46 46 48 49 49 49 49 47 47 46 46 47
5 5 5 6 7 8 8 8 9 10 12 14 14 15 15 15 15 16 17 18 18 19 19 19 20 20 21 21 22 22 23 23 23 23 23 23 23 23 24 25 25 25 25 26 26 26 26 26 26 26 26 26 26 26 27 27 28 29 29 28 29 29 28 29 31 35 39 40 39 40 42 41 43 44 44 45 47 47 48 48 47 47 47 46 47
5 4 4 5 5 5 6 7 9 10 12 13 13 14 14 14 15 16 16 17 18 18 18 19 19 20 21 22 23 24 24 25 25 26 25 25 26 25 26 26 27 27 28 28 29 29 29 30 29 29 29 29 29 28 28 28 28 29 29 29 29 29 29 29 30 32 35 38 38 38 40 40 42 44 44 45 46 46 47 47 47 47 46 45 44
4 3 3 3 3 4 6 7 9 10 11 12 12 13 13 14 14 15 16 17 17 18 18 19 20 21 22 23 24 25 25 26 27 27 27 28 28 28 28 28 28 29 29 30 30 31 31 32 32 32 33 33 32 31 31 30 29 29 29 29 29 29 30 30 30 31 33 36 37 36 37 38 39 40 42 44 47 48 48 49 48 48 48 46 45
3 2 2 1 3 4 6 7 8 10 11 11 12 12 13 13 14 15 16 16 17 18 19 20 21 22 23 24 25 26 27 28 28 29 30 30 31 32 32 32 32 32 32 32 33 33 33 33 33 33 33 33 33 33 33 32 31 30 29 29 29 30 31 31 31 32 33 35 37 37 36 35 36 37 37 39 43 47 49 50 50 48 48 49 49
3 2 1 1 3 5 6 7 8 9 10 11 11 12 13 14 15 16 16 17 17 18 19 21 22 24 25 26 27 28 29 30 31 32 33 34 34 35 35 36 36 36 36 36 36 36 35 35 34 33 32 31 31 31 32 32 31 31 30 30 31 31 32 33 33 34 35 36 37 37 37 35 35 35 35 35 38 42 43 47 52 51 49 49 50
3 2 1 2 3 4 5 7 8 9 9 10 11 12 14 15 16 17 18 18 19 20 21 22 23 24 25 27 28 29 30 31 33 34 35 36 36 36 37 37 38 38 38 38 38 37 37 36 35 33 31 30 30 29 29 30 31 32 32 32 33 34 34 35 36 36 37 39 40 40 40 39 37 36 35 34 35 38 37 39 47 51 50 50 51
3 1 0 1 3 4 5 6 7 7 8 9 11 13 14 16 17 18 19 20 21 21 22 22 23 23 24 25 27 28 29 30 32 33 34 35 36 36 36 36 37 38 38 38 38 38 37 37 36 35 34 33 31 30 29 29 30 32 34 34 36 37 38 39 40 41 42 43 45 44 43 43 41 39 39 38 36 38 38 38 44 49 49 50 52
3 2 1 1 2 3 4 5 6 7 8 10 12 14 15 16 18 18 20 21 21 22 23 23 24 24 25 25 26 27 29 30 31 32 33 35 36 37 36 36 37 37 38 38 38 38 38 38 38 38 38 37 37 36 35 34 34 34 35 36 36 37 39 41 41 42 43 44 45 43 43 45 43 40 41 40 36 36 38 38 40 44 46 48 52
4 3 2 0 2 2 4 5 7 8 10 12 14 15 16 17 18 19 20 21 22 23 24 25 26 27 27 28 28 29 30 31 32 33 34 36 37 38 38 39 38 38 39 39 39 40 40 40 40 40 40 40 40 40 40 40 39 39 38 37 35 34 35 36 37 38 38 40 43 43 42 44 43 40 38 37 34 33 34 35 36 39 40 42 48
5 3 2 1 2 3 4 6 8 10 11 13 14 16 17 17 18 19 20 21 22 23 25 26 28 29 29 30 31 31 32 33 33 34 36 37 37 38 39 40 40 40 39 39 40 40 41 41 40 39 38 39 40 40 41 41 40 39 38 37 36 34 32 32 33 35 37 39 43 44 42 42 43 41 37 37 39 40 40 41 42 42 44 45 48
5 3 2 2 2 4 5 7 9 10 12 13 14 15 16 17 18 19 20 21 22 23 25 26 28 29 30 31 32 33 34 34 35 36 37 37 38 39 40 40 40 39 39 40 40 39 39 39 38 37 37 38 39 39 40 40 41 41 40 39 39 37 36 35 34 35 35 36 38 41 39 38 41 42 40 40 45 48 49 49 48 48 50 52 54
4 3 2 1 2 4 6 7 9 10 11 13 14 15 16 17 18 19 21 22 23 24 25 26 28 29 30 32 33 34 35 36 37 37 37 37 39 40 41 40 40 39 39 39 39 38 37 36 35 35 35 36 37 38 39 40 39 38 35 34 34 32 32 33 34 33 31 31 34 37 37 37 39 42 42 41 43 46 47 49 49 48 50 53 56
5 3 1 1 2 4 6 7 8 10 11 12 13 14 16 17 19 20 22 24 25 26 27 28 30 31 32 33 35 35 36 37 37 37 38 39 40 41 42 41 41 40 39 39 38 37 36 36 36 36 37 38 37 36 35 35 35 33 32 32 32 31 30 29 28 28 27 27 29 32 33 34 34 36 37 37 38 39 40 42 45 47 51 54 57
5 3 1 1 3 4 6 7 8 10 11 12 13 15 17 19 21 22 24 25 26 28 29 31 32 33 34 36 36 37 38 38 38 38 39 40 41 42 42 42 41 40 39 39 40 40 39 39 40 39 39 38 36 33 32 33 34 35 35 33 31 31 30 26 23 23 24 25 26 30 33 35 37 38 39 38 38 38 40 43 45 46 49 52 55
5 2 1 1 3 5 6 7 9 10 11 12 14 16 19 20 22 24 25 26 28 29 31 32 33 34 35 36 37 38 38 38 38 39 38 38 39 41 41 40 39 39 40 41 41 41 40 40 39 39 37 34 33 32 33 34 34 34 34 33 32 32 31 27 26 29 32 33 36 39 42 43 45 46 46 46 43 39 39 41 39 36 36 38 42
4 2 0 2 3 5 6 7 9 10 12 14 16 18 20 22 24 25 27 28 29 30 31 32 33 34 35 36 37 38 38 38 37 37 37 37 37 38 39 39 39 40 41 41 40 40 39 38 36 35 32 31 32 34 33 33 33 35 36 38 39 38 34 32 37 42 43 44 47 47 47 46 46 45 44 42 39 35 35 38 37 35 35 36 39
4 2 1 2 4 5 6 8 9 11 13 16 18 20 21 23 25 26 28 29 30 31 32 33 34 35 36 36 37 37 37 37 35 35 36 36 36 36 38 39 39 39 39 40 40 39 37 36 34 32 29 30 33 33 31 32 33 36 38 41 40 38 35 37 45 49 49 50 49 47 46 45 43 42 41 37 33 31 34 38 39 41 44 45 46
4 3 2 2 4 5 6 8 10 12 14 16 18 20 22 23 25 26 27 29 30 31 33 34 35 36 36 36 36 35 35 35 35 35 35 34 34 34 35 37 37 38 38 38 38 37 34 32 32 31 31 31 32 31 31 32 33 35 37 36 34 34 38 43 47 48 49 49 48 46 44 41 38 37 36 35 34 34 34 35 37 40 44 47 48
4 2 2 3 4 5 6 8 10 12 14 16 18 20 22 23 25 27 28 30 31 32 33 34 35 35 35 35 34 34 34 35 35 34 33 32 31 30 31 33 34 35 37 36 32 30 28 27 30 32 31 30 31 33 34 33 33 34 33 29 28 33 39 43 43 44 44 44 44 44 43 41 39 37 36 36 37 37 36 35 34 35 37 40 44
4 3 2 3 4 4 6 8 10 12 14 17 18 20 22 24 26 28 29 31 32 33 34 34 34 34 34 33 33 33 33 34 34 33 32 30 28 27 28 30 31 32 33 31 27 25 24 26 30 32 31 31 33 35 36 35 34 32 29 27 30 34 37 37 38 39 40 40 41 41 41 41 41 40 39 39 40 39 39 39 37 35 34 34 36
4 2 2 2 3 4 6 8 11 13 15 17 19 21 23 25 27 29 30 31 32 32 33 33 33 34 34 33 33 32 32 32 32 31 30 29 26 25 27 28 28 28 27 26 26 27 28 29 32 33 33 35 37 37 37 35 33 31 28 28 31 33 33 34 35 36 37 38 39 40 40 40 40 41 40 41 41 41 41 42 41 39 38 36 35
3 1 1 2 3 5 7 9 12 14 16 18 20 22 24 25 27 29 29 30 31 31 32 33 33 34 34 33 32 31 30 31 30 28 29 28 25 24 26 28 28 26 23 23 26 28 30 32 34 35 36 37 37 37 36 34 32 30 29 29 30 31 32 33 33 34 36 37 38 38 39 38 38 39 40 40 41 41 41 41 41 41 41 41 40
2 1 2 3 5 6 9 10 13 14 16 19 21 22 24 26 26 28 29 29 29 31 32 32 32 32 32 32 31 30 29 29 28 26 27 26 23 24 27 29 28 24 20 22 27 30 32 34 36 36 37 37 37 36 36 34 32 31 30 30 30 31 31 32 32 33 35 36 36 37 37 37 37 37 38 39 39 40 40 41 40 40 41 42 44
2 2 3 5 6 8 9 11 13 16 17 19 22 23 25 26 26 27 29 29 28 30 31 31 30 30 30 29 29 29 28 27 25 24 25 25 25 28 30 30 28 23 21 25 31 32 34 35 36 37 37 36 36 36 35 34 32 31 31 31 31 31 31 31 32 32 33 34 35 36 36 36 36 36 36 37 38 39 40 42 43 42 42 45 47
3 4 5 6 8 9 11 12 14 17 18 20 22 23 24 25 26 27 28 29 29 29 30 29 28 28 28 28 27 27 27 26 24 25 25 25 25 29 30 29 27 24 25 30 32 33 35 36 36 36 35 34 34 33 33 33 32 31 31 31 30 30 30 30 30 31 32 33 34 34 35 35 36 36 36 37 38 39 40 42 43 44 45 46 49
5 6 7 8 9 11 12 14 15 17 19 20 22 24 24 25 26 26 27 29 29 28 28 27 24 24 26 27 27 27 27 25 23 23 23 22 24 27 28 27 25 24 26 29 30 33 36 36 35 35 34 34 33 32 31 31 31 31 31 30 30 30 30 29 29 30 30 32 33 34 34 35 36 36 37 39 39 40 41 42 43 45 47 47 48
7 7 8 9 10 12 13 15 16 18 20 21 22 23 24 25 26 26 25 26 26 24 24 23 22 23 25 26 26 27 27 26 22 19 18 21 24 26 26 24 22 22 24 26 31 35 36 35 35 35 34 34 34 33 32 32 32 32 31 31 31 31 31 30 31 31 31 32 32 34 35 36 37 38 39 41 42 42 43 44 45 46 47 47 48
8 9 9 10 12 13 14 16 17 19 21 21 21 21 21 23 25 26 24 22 21 20 20 20 21 22 24 25 24 23 23 23 20 17 19 22 24 24 22 20 20 21 23 27 32 34 34 34 35 34 33 34 34 33 34 34 34 35 34 33 32 33 32 32 32 32 32 32 33 34 35 37 39 40 41 43 44 45 45 45 46 47 48 48 49
9 10 11 12 13 14 15 16 17 18 20 21 21 21 21 21 22 24 23 21 20 19 19 20 20 21 22 23 23 21 20 19 18 19 22 23 23 22 20 19 20 23 26 29 32 32 32 33 34 33 33 33 33 33 34 35 35 37 37 36 35 34 34 34 33 33 33 33 34 35 36 37 39 41 42 43 45 47 47 47 48 49 50 50 50
11 11 12 13 13 14 15 16 17 18 18 20 21 22 23 22 20 19 20 20 21 20 20 20 21 20 19 20 21 20 19 18 18 20 22 22 22 20 19 20 23 25 27 29 30 30 30 31 32 32 33 33 33 34 34 35 36 37 38 39 38 37 36 35 35 35 35 35 36 36 36 37 39 41 43 44 45 47 48 49 50 50 51 53 53
12 12 13 13 14 15 15 15 16 17 18 20 21 22 23 24 23 21 20 19 19 19 19 19 20 19 18 18 18 19 18 18 19 20 20 21 20 19 19 23 25 25 26 28 29 29 30 30 31 31 32 33 34 35 35 35 37 37 38 39 40 39 38 37 37 37 37 36 37 37 38 38 40 42 43 45 45 47 48 49 50 52 53 55 56
12 12 13 13 14 15 15 16 16 17 19 20 22 22 23 24 25 25 24 22 21 18 16 15 16 17 17 17 18 18 18 17 17 18 19 20 20 19 22 25 24 23 24 26 28 29 30 30 31 31 32 33 34 35 36 36 37 38 39 39 40 40 40 39 39 39 39 38 38 39 39 40 41 42 44 46 46 47 48 49 50 52 54 55 57
13 14 14 14 14 15 16 16 17 18 19 20 21 22 23 23 23 24 25 24 24 21 17 14 14 15 16 17 18 18 17 17 17 17 18 19 21 22 25 26 25 24 24 24 25 27 28 29 30 31 32 33 34 34 36 37 37 38 39 40 41 41 42 41 41 41 40 40 40 40 41 41 42 42 44 45 46 47 48 49 50 53 54 55 56
14 15 16 16 15 16 16 17 18 19 20 21 21 22 22 22 23 23 23 22 22 22 20 17 15 14 15 16 18 18 17 17 17 17 17 19 20 23 26 26 26 27 26 25 25 26 27 28 30 31 31 33 34 34 35 37 37 38 39 40 41 42 42 43 43 42 42 42 42 42 42 42 42 43 43 45 46 47 47 48 51 53 54 55 55
16 16 16 16 17 17 17 18 19 20 20 21 21 22 22 21 21 22 21 21 21 21 21 20 18 16 15 15 17 18 18 17 17 17 18 18 19 21 24 25 26 27 27 26 27 27 27 28 29 30 31 33 34 34 35 36 37 38 39 39 40 41 42 42 42 42 42 42 42 42 42 42 43 43 43 45 46 47 47 48 51 54 57 56 56
17 17 17 17 18 19 19 19 20 21 21 21 21 22 22 21 21 21 21 21 21 21 21 20 19 18 18 17 17 19 20 19 17 17 17 18 18 19 21 23 24 26 26 26 27 27 28 28 29 30 31 32 33 34 35 36 37 38 38 39 40 40 41 42 42 41 42 42 42 42 42 43 43 43 43 44 46 46 47 49 52 55 58 58 57
17 17 18 19 19 20 21 21 21 21 21 21 21 21 21 21 21 21 21 21 22 22 21 21 20 18 18 19 19 21 22 21 20 19 19 18 18 19 20 22 23 24 25 25 25 26 27 28 29 30 31 32 33 34 35 35 36 37 37 39 40 41 41 42 42 42 42 42 42 43 42 43 43 43 42 44 45 46 47 50 53 55 57 58 57
17 17 18 20 21 22 22 22 22 22 21 21 21 21 21 21 21 22 22 23 23 23 22 22 20 18 17 19 20 22 23 23 22 21 21 21 20 19 19 20 22 23 24 24 24 26 27 28 29 30 31 32 33 34 34 35 36 36 37 38 39 40 41 41 42 43 42 42 42 42 42 42 42 42 43 44 44 46 48 52 55 56 56 57 57
18 18 19 21 22 23 23 22 22 22 22 22 21 21 21 22 22 23 24 24 24 24 24 23 21 18 17 18 19 21 23 24 23 23 22 21 21 20 20 20 21 22 23 24 24 25 27 28 29 30 31 31 32 33 34 35 36 36 37 37 38 39 41 41 42 42 42 42 42 42 42 42 41 42 43 44 45 47 50 52 55 56 56 56 57
19 20 21 22 23 24 23 22 21 21 22 22 22 22 22 23 23 24 25 25 25 25 25 24 22 20 18 18 19 21 23 24 23 23 22 21 21 21 20 20 21 22 23 24 24 25 27 28 29 30 30 31 32 33 34 35 36 36 37 38 38 39 40 41 41 42 41 42 42 41 41 42 42 43 44 45 46 49 51 53 54 55 55 57 57
21 22 23 23 24 23 23 22 22 22 22 22 23 23 23 24 24 24 25 26 25 26 26 26 24 22 20 19 19 22 23 23 23 23 22 21 21 21 21 21 21 22 22 23 23 25 26 28 29 29 30 31 32 33 34 35 35 36 37 38 38 39 39 40 41 41 41 42 42 42 42 42 43 44 45 46 48 50 51 52 54 54 55 57 58
22 23 24 25 24 24 23 22 22 22 23 23 24 24 24 24 25 25 25 26 26 26 26 26 26 25 24 22 21 22 23 23 23 23 23 22 22 21 21 21 21 21 21 22 22 23 25 27 28 29 30 31 32 32 33 34 35 35 36 37 38 39 39 39 40 40 40 41 42 43 43 44 45 46 47 48 49 51 51 51 52 54 55 56 58
24 24 25 25 25 24 23 22 22 23 24 25 26 26 26 26 26 26 26 27 27 27 27 27 26 26 26 25 23 23 24 24 24 24 23 23 22 21 21 21 21 21 21 21 22 23 25 26 28 29 30 31 32 33 33 34 34 35 35 36 37 38 38 38 39 39 40 41 42 43 44 45 46 47 49 49 49 49 50 50 51 52 54 56 57
24 25 26 26 26 25 25 24 23 24 25 26 27 27 27 27 27 27 27 27 28 28 29 28 27 27 27 26 25 25 25 25 25 25 24 24 23 22 21 21 21 21 22 22 22 23 25 26 28 30 31 32 33 34 34 35 35 35 35 35 36 37 37 38 38 39 40 40 42 43 44 46 47 48 48 48 47 47 47 49 50 51 53 55 56
25 26 27 27 27 27 26 25 25 25 26 26 27 28 28 29 29 29 29 29 28 29 29 29 29 29 28 28 27 27 27 27 27 26 26 25 24 23 22 22 22 23 23 23 24 25 26 27 28 30 32 33 35 35 36 36 36 36 36 36 36 37 37 37 38 39 40 40 41 42 43 45 47 48 47 46 45 45 46 48 50 51 53 54 55
27 28 28 28 28 28 27 26 26 27 27 27 27 28 29 30 30 31 31 30 30 29 29 30 30 30 29 29 29 28 28 28 29 28 27 27 25 24 24 24 24 25 25 25 26 26 27 28 30 31 33 34 36 37 38 38 38 37 38 37 37 37 37 37 38 39 40 40 40 42 43 45 46 46 45 43 42 43 45 48 49 51 53 54 55
28 29 29 29 29 29 28 28 28 28 28 28 29 29 30 30 31 32 32 32 31 31 30 30 30 30 30 30 30 29 29 30 30 30 29 28 27 26 26 26 26 27 27 28 28 28 29 30 31 32 34 35 36 38 39 40 39 39 38 38 38 37 37 38 38 38 39 40 41 42 43 44 44 43 41 40 40 42 44 47 48 50 52 53 54
28 29 29 29 30 29 29 29 30 30 30 30 30 31 31 32 32 32 32 32 32 32 31 31 31 31 31 31 31 30 30 30 31 31 31 30 29 28 28 28 28 28 29 30 30 30 31 32 33 34 35 36 37 39 40 41 41 40 39 39 39 39 38 38 38 38 39 40 42 42 42 42 42 40 39 38 39 41 43 45 47 49 51 52 53
28 29 29 29 30 30 30 30 31 31 30 30 31 32 32 33 33 33 33 33 33 32 32 31 31 31 32 32 32 31 31 31 31 32 32 32 31 30 30 30 30 31 31 32 32 32 33 33 34 35 36 37 38 39 40 41 41 40 40 40 39 39 38 37 38 38 39 40 41 42 41 41 40 39 37 37 38 41 43 45 46 48 49 50 50
Wind_Direction
59 53 53 51 45 41 39 36 33 28 24 19 17 19 19 17 16 14 10 10 11 10 9 10 10 9 7 5 5 5 5 6 6 6 6 5 4 2 359 358 356 354 352 350 350 350 349 348 346 344 343 342 341 339 336 335 331 329 326 320 316 312 309 307 305 304 304 303 300 298 297 297 296 297 298 298 298 297 296 294 292 290 288 287 285
79 67 63 53 44 42 38 34 32 27 22 19 19 19 17 17 16 11 8 9 8 7 6 7 7 6 4 3 4 3 3 3 3 3 3 3 3 3 0 358 356 354 353 350 350 349 348 346 344 342 341 340 339 338 335 334 331 329 329 326 322 319 316 312 310 309 308 308 308 305 305 303 299 299 301 301 300 300 298 297 296 294 290 288 286
89 76 65 51 42 39 34 30 29 22 17 16 16 15 13 13 11 7 7 7 4 4 4 3 2 1 1 1 2 2 1 1 1 360 359 359 359 0 359 358 356 354 353 351 350 348 346 345 343 340 338 337 335 334 332 331 329 327 326 324 321 319 317 314 311 311 311 311 312 311 311 310 306 305 306 304 304 305 303 302 301 299 296 294 290
96 89 69 52 44 34 26 26 22 14 11 11 10 10 10 8 6 4 3 2 2 3 2 1 360 359 359 0 360 360 360 359 359 358 356 356 355 355 355 355 354 353 352 350 348 347 345 344 343 340 338 336 334 332 330 328 326 324 322 321 319 316 314 312 310 310 311 311 311 312 312 312 310 310 310 308 306 306 306 306 305 304 302 301 297
113 107 88 63 46 28 21 17 10 6 7 8 8 9 7 4 2 360 359 360 359 359 358 358 358 358 359 360 359 358 357 356 355 354 353 353 351 351 350 350 350 350 348 347 346 344 343 342 341 340 338 336 335 332 330 328 325 322 320 318 316 314 312 310 308 308 309 310 310 311 312 312 311 311 311 311 309 307 306 305 305 306 306 304 302
144 134 130 88 40 24 14 5 2 4 6 7 7 7 4 1 360 358 359 359 356 355 355 355 357 358 358 358 357 355 355 353 352 351 351 350 349 348 347 347 346 346 344 343 342 341 340 339 338 338 337 335 333 331 329 327 325 323 321 317 315 313 311 310 309 309 310 310 311 311 312 312 311 311 311 311 310 309 308 307 305 305 306 305 304
168 163 148 60 30 14 3 358 0 3 3 4 3 1 360 359 359 0 360 357 355 355 355 355 356 356 355 354 354 354 353 352 351 351 350 349 348 346 345 344 344 343 341 340 338 337 337 337 337 337 337 334 330 328 326 324 322 321 319 316 314 313 312 310 310 311 311 311 310 311 311 311 310 309 310 311 309 308 309 310 307 305 306 305 304
180 168 105 31 7 358 360 1 3 3 1 1 359 357 358 359 0 1 359 358 358 358 358 358 356 355 353 353 352 352 351 350 351 350 349 347 345 343 343 341 340 339 338 336 336 335 334 334 335 335 334 331 328 325 323 320 317 315 314 313 312 312 311 311 311 311 310 309 308 308 309 308 308 308 309 310 309 307 308 308 304 303 304 304 302
188 178 215 338 353 5 9 5 3 2 359 357 357 358 359 0 0 360 358 359 360 359 358 356 354 353 352 351 350 349 348 348 349 348 346 344 342 340 338 337 336 335 333 333 332 332 331 331 331 330 329 326 323 320 317 315 313 312 311 311 310 309 309 308 308 309 309 309 308 309 309 308 308 310 309 308 307 304 304 303 300 300 302 301 298
199 205 246 307 21 25 13 4 360 359 358 359 1 2 2 1 360 358 357 357 357 356 355 352 350 350 350 349 348 346 346 346 346 345 343 341 339 337 335 335 334 333 332 331 330 329 328 327 326 325 323 321 320 318 317 317 315 313 311 310 309 308 306 306 306 308 309 309 308 310 310 308 309 312 311 311 310 306 305 304 301 300 302 301 299
208 213 228 114 70 35 11 8 4 2 3 4 4 3 1 359 356 354 354 354 353 353 352 350 349 348 348 347 346 345 344 344 343 342 341 340 338 336 336 336 336 335 334 332 330 329 327 326 325 323 321 320 319 318 318 318 317 316 315 315 315 313 312 311 309 308 308 307 305 306 308 307 309 312 313 312 310 306 304 303 303 302 301 301 299
207 208 185 113 71 24 10 9 6 4 4 2 0 359 357 353 351 351 351 352 352 351 349 348 348 347 346 346 345 344 343 342 341 340 338 338 336 334 335 337 336 336 335 333 332 330 329 329 328 327 325 323 321 320 319 317 317 316 316 315 314 315 316 315 312 310 308 306 305 305 306 306 306 307 308 307 304 301 299 299 299 299 298 296 294
199 192 151 104 38 14 9 5 3 2 360 359 357 355 352 350 350 351 351 351 350 349 348 347 346 344 343 343 342 342 341 340 339 339 337 336 335 333 334 335 335 334 334 333 333 333 333 333 332 331 331 328 327 327 325 323 322 320 318 316 314 314 313 311 310 310 310 310 309 308 309 309 307 305 305 306 304 302 301 300 298 297 296 294 291
191 180 148 79 24 13 7 1 359 359 358 358 355 353 352 352 352 352 351 351 349 347 346 345 343 342 342 341 341 341 341 341 340 339 339 338 335 334 335 335 335 334 334 334 334 334 335 335 334 334 333 332 334 336 336 336 334 331 329 328 326 325 323 321 319 317 314 311 308 307 308 308 306 305 306 308 308 305 303 302 300 298 295 292 290
188 177 163 39 13 3 359 358 359 359 359 358 355 353 353 353 354 354 353 352 350 349 347 346 345 345 344 343 343 342 342 342 341 340 340 338 335 334 334 334 334 335 335 336 336 336 336 336 335 335 334 336 342 346 345 341 334 327 324 322 321 321 321 322 324 322 318 314 311 310 309 308 308 309 311 313 311 307 305 301 297 295 294 292 291
188 180 193 348 1 359 360 1 0 0 0 358 357 356 356 356 356 355 353 352 350 349 349 348 347 346 345 344 343 342 342 341 341 340 339 338 336 334 334 335 335 337 337 335 335 334 335 336 336 335 336 340 347 348 343 336 329 325 323 323 323 322 320 320 319 312 306 305 305 301 297 296 298 302 305 306 307 309 308 302 298 297 297 296 294
190 189 220 2 11 9 9 7 3 4 3 2 2 1 360 358 356 354 354 352 351 350 348 347 346 345 344 343 342 341 340 340 340 340 339 338 336 335 335 335 335 335 334 333 333 334 334 335 335 336 339 345 346 343 341 339 334 330 329 328 326 324 326 327 315 302 297 296 295 293 292 293 294 294 295 295 298 306 309 304 303 306 305 302 299
193 188 111 34 23 16 13 10 8 9 7 6 7 5 1 358 356 355 354 352 351 349 347 345 345 343 341 341 340 339 338 339 339 339 339 339 337 334 333 332 332 332 331 332 333 334 334 334 335 339 343 343 339 338 342 341 334 328 326 324 323 323 326 322 310 306 307 306 305 306 306 306 306 304 303 300 298 299 297 294 297 302 303 303 301
182 154 96 48 30 18 16 15 15 14 11 8 6 4 0 357 355 354 352 350 349 346 344 343 342 341 339 339 338 338 337 337 338 338 338 337 336 332 330 329 331 332 332 333 333 334 335 335 336 339 339 335 332 334 335 333 328 324 321 322 324 326 325 317 311 313 315 314 315 317 316 317 317 316 315 313 306 296 288 284 287 294 302 305 303
158 132 97 55 36 24 21 19 16 13 10 6 3 360 356 354 352 350 349 347 346 344 342 341 340 339 338 337 338 337 336 336 337 337 336 334 333 331 329 330 332 333 333 334 335 335 337 337 335 335 336 335 332 329 327 325 323 322 322 325 328 324 315 312 313 315 316 316 318 320 321 323 325 323 320 316 310 304 298 292 288 291 300 304 302
153 137 92 57 38 27 24 17 11 8 4 1 358 355 352 350 348 348 347 345 344 342 340 339 338 338 337 337 337 337 336 336 336 336 334 333 332 332 331 332 334 333 333 335 337 336 336 335 332 333 337 338 333 328 327 327 325 324 325 327 323 314 310 312 314 315 315 317 320 321 323 327 328 327 326 323 319 318 314 309 302 298 299 301 302
155 131 84 51 29 20 16 7 2 1 357 353 352 349 348 347 346 345 345 343 342 341 339 338 338 337 337 337 337 336 336 335 335 334 333 333 334 333 331 332 335 335 335 336 335 332 333 332 330 332 335 334 330 328 329 329 328 327 326 321 314 311 313 315 316 316 317 320 322 324 327 330 330 330 330 329 328 327 324 321 318 313 306 302 300
148 122 74 30 9 2 359 355 352 351 349 347 346 345 345 345 343 343 342 341 340 339 337 337 337 335 335 335 335 335 334 333 334 333 332 332 334 332 330 333 338 340 337 333 328 326 327 327 327 329 331 329 328 329 329 328 328 327 325 320 317 317 319 320 320 321 322 323 325 326 328 331 332 331 331 331 330 329 328 327 325 323 318 312 305
155 130 19 347 346 344 344 345 343 343 342 341 341 342 342 341 341 340 340 340 339 337 336 336 335 333 333 332 333 334 332 332 334 333 329 331 334 332 332 336 341 343 336 326 323 323 323 323 324 326 328 327 327 327 326 325 326 327 326 324 322 323 325 326 326 327 326 326 327 327 328 330 331 330 330 330 328 327 328 327 326 325 324 321 316
197 245 308 324 330 331 334 336 335 336 337 337 338 340 339 339 339 338 338 339 338 335 335 335 333 332 330 329 331 332 331 332 335 333 332 337 337 333 334 338 341 341 333 322 320 319 320 322 324 326 327 326 325 325 324 324 327 328 328 329 329 330 332 332 332 331 330 329 329 328 328 328 328 328 329 328 327 328 330 329 326 325 325 324 320
238 274 298 312 319 321 325 328 329 333 336 337 338 339 338 338 339 338 338 339 338 336 334 332 330 328 326 327 330 330 331 335 337 336 341 346 338 331 332 336 339 339 329 320 319 318 319 323 324 325 326 325 324 324 325 326 328 329 331 333 334 337 338 337 337 335 333 332 331 329 329 328 328 328 328 329 329 332 334 333 329 328 329 328 323
257 281 295 305 310 314 320 326 329 333 337 338 338 338 338 338 339 340 339 338 336 334 330 328 327 325 323 327 330 330 332 336 338 341 348 346 332 325 327 332 338 337 326 320 319 317 318 321 323 324 324 323 323 323 324 326 329 331 334 337 339 341 342 341 339 337 335 333 331 330 330 330 329 330 331 332 333 335 337 336 332 330 331 329 325
267 282 291 301 309 315 321 327 331 334 337 338 338 338 339 339 339 340 338 334 332 329 327 326 327 324 323 327 329 328 330 335 339 345 346 334 320 318 324 331 336 332 323 319 315 313 316 320 322 323 324 323 324 326 326 328 331 333 337 339 341 342 343 341 340 337 335 334 333 333 333 333 333 335 335 334 335 337 338 336 332 331 331 329 325
273 284 292 303 312 318 323 328 332 333 336 338 339 339 340 338 336 335 333 330 328 327 326 328 328 323 321 324 326 326 327 332 340 344 330 316 313 316 322 329 330 322 317 314 310 311 318 323 323 325 327 327 329 331 331 332 334 336 338 340 341 342 342 342 340 337 336 336 335 335 335 335 335 336 336 334 335 337 337 335 332 331 330 328 324
278 289 299 307 314 319 324 328 330 331 333 336 338 339 338 334 331 330 329 327 327 327 326 324 321 318 317 319 320 321 321 326 331 323 310 309 313 315 319 324 321 314 312 311 311 316 323 324 324 328 329 330 332 334 335 335 335 335 337 339 339 340 340 340 339 336 334 335 334 334 335 335 334 334 334 333 333 334 334 333 331 330 329 327 324
284 294 303 309 313 319 323 325 328 330 332 333 334 333 332 331 328 327 327 326 326 325 323 318 314 312 312 312 314 316 316 317 314 307 307 311 313 315 321 321 314 311 312 312 316 323 324 323 325 329 330 331 333 334 334 334 334 334 334 335 336 337 337 336 336 334 332 331 331 331 333 333 332 332 331 330 330 330 331 331 330 330 329 326 323
287 295 304 308 312 318 320 323 327 329 330 330 330 328 327 328 328 326 324 323 321 320 317 313 310 309 307 307 309 311 313 312 308 306 309 311 313 320 323 314 309 313 316 316 319 322 322 322 326 328 328 330 331 331 331 331 331 331 331 331 332 333 334 333 333 331 329 329 328 328 329 330 330 329 329 329 328 327 328 329 328 328 328 326 323
289 297 303 307 310 315 319 323 326 327 327 327 327 326 326 326 325 322 319 316 314 313 310 308 306 307 307 305 304 305 307 309 308 309 311 312 317 322 316 309 312 318 319 317 319 319 320 323 326 326 327 328 328 328 328 328 327 327 327 327 327 329 329 330 330 328 328 327 326 326 326 326 326 326 326 326 327 326 325 326 326 326 326 325 323
296 300 302 305 309 314 319 323 324 325 326 326 325 325 325 322 320 318 315 313 311 311 309 306 303 304 305 304 302 303 305 307 310 312 313 315 318 314 307 309 316 318 314 315 318 318 321 324 325 325 326 325 325 325 325 324 325 324 324 324 324 324 325 326 326 326 326 326 325 325 325 324 324 324 324 324 324 324 323 324 324 324 324 323 322
300 300 303 307 312 316 319 321 323 325 326 324 323 322 320 318 316 314 313 313 313 314 315 310 303 301 302 303 303 304 307 311 313 314 315 316 314 309 308 312 316 315 314 318 319 320 323 324 324 325 325 324 325 325 324 324 324 324 323 323 323 323 323 324 324 324 324 324 324 324 324 323 323 322 322 322 322 322 322 322 322 322 322 322 321
297 299 304 309 314 317 321 322 323 324 323 321 319 317 315 313 312 311 310 312 312 313 315 314 308 304 304 305 306 306 309 313 314 314 314 314 311 310 311 314 316 317 320 323 323 323 326 326 325 326 326 325 326 326 325 325 325 325 324 324 323 323 323 323 323 323 323 323 323 322 322 321 321 321 321 321 320 320 320 320 321 321 321 321 320
295 300 306 312 317 320 322 321 320 319 318 317 315 313 311 310 309 309 309 310 310 310 312 312 311 310 307 304 304 305 307 311 313 311 311 310 310 310 311 314 317 319 321 324 326 326 327 328 328 327 327 327 327 327 327 327 326 326 325 324 323 323 323 323 323 324 323 322 321 320 320 319 319 320 321 320 319 319 319 319 320 320 320 321 320
297 305 313 317 319 318 317 317 315 315 314 312 309 308 307 308 308 307 307 307 307 308 309 310 311 312 310 308 306 305 307 310 311 309 307 307 308 310 311 314 316 318 321 324 327 327 328 329 329 328 328 328 328 328 327 327 326 326 326 324 324 323 324 324 324 324 324 323 321 320 319 318 318 319 320 319 318 319 319 319 319 319 320 321 320
305 313 315 315 315 313 312 312 311 310 308 306 305 305 306 307 307 305 304 304 305 306 307 308 309 311 310 309 308 307 307 310 312 311 310 311 313 314 315 316 317 319 321 325 328 328 329 330 330 329 329 329 328 328 328 327 326 326 326 325 324 325 325 325 326 326 325 324 323 321 319 318 318 318 318 318 318 319 318 318 319 319 319 319 319
308 312 312 311 310 309 308 308 307 305 304 304 304 304 304 304 304 303 303 303 305 306 306 306 307 310 309 307 307 306 306 309 312 313 313 315 316 317 317 318 318 320 323 326 329 329 329 330 331 331 331 331 330 330 328 327 327 326 326 325 325 325 326 327 327 327 327 325 324 322 320 319 319 318 318 318 320 319 317 318 319 320 319 318 318
307 308 308 307 306 305 304 304 304 303 304 304 304 303 303 302 302 302 302 303 304 305 304 304 306 308 306 303 303 302 302 305 309 310 311 313 315 315 317 318 318 320 323 325 328 329 328 329 331 331 331 332 332 331 330 329 329 327 327 327 327 327 327 327 328 328 327 326 324 323 321 320 320 320 320 320 320 318 318 318 319 319 319 319 319
306 306 305 304 302 301 302 302 302 302 302 301 301 301 301 301 301 301 301 302 303 303 302 303 304 304 302 300 298 297 298 301 304 305 306 308 310 311 313 315 316 318 321 324 326 327 327 328 330 331 331 332 332 331 331 331 330 329 328 328 328 328 328 329 329 329 328 327 325 324 323 322 322 322 322 320 319 318 319 319 319 320 320 320 319
303 303 303 301 300 300 301 301 301 300 299 299 299 299 299 299 300 300 300 301 302 302 301 302 302 301 299 297 295 293 295 297 298 299 301 303 305 307 310 312 314 316 319 322 324 325 325 327 328 330 331 332 332 332 332 332 331 330 329 328 328 328 329 330 330 330 329 328 327 326 326 326 325 323 321 319 318 318 319 320 320 321 321 320 320
302 302 301 300 300 301 301 301 301 300 299 299 298 298 299 300 300 300 301 301 301 301 299 299 299 299 297 296 293 292 293 294 294 295 297 299 301 305 307 309 311 314 317 321 324 325 325 327 328 330 331 332 332 332 332 332 332 331 330 329 328 328 330 331 332 331 331 330 329 329 328 326 324 322 319 319 319 319 319 320 321 321 321 321 321
301 301 300 300 300 300 301 301 301 299 298 298 298 299 300 301 301 302 302 301 301 300 298 297 296 295 295 294 293 292 292 293 293 293 295 296 299 301 304 306 308 312 315 320 324 325 326 328 329 330 332 333 333 333 333 333 332 331 330 330 329 329 330 332 332 331 332 332 331 329 326 323 321 320 319 320 320 320 320 321 322 322 321 321 321
299 300 300 300 300 300 300 300 298 297 296 297 298 299 300 301 302 302 302 301 301 299 297 296 294 292 292 292 292 291 292 292 291 291 292 294 296 298 301 303 305 308 313 318 321 324 326 328 329 331 333 333 334 334 334 333 333 332 331 330 329 329 330 331 331 332 334 334 330 326 323 321 320 320 320 320 320 321 322 323 323 322 322 322 322
300 301 301 301 300 300 300 299 298 297 297 298 299 300 301 302 303 302 302 302 301 299 297 295 294 292 291 291 291 290 290 290 290 290 291 292 293 296 297 299 302 305 309 313 317 320 323 325 327 329 331 332 333 334 334 334 334 333 332 332 331 331 331 331 332 334 335 333 328 325 323 321 320 320 320 321 321 322 324 324 324 324 324 324 323
302 301 301 300 299 299 300 300 299 298 298 300 301 301 302 303 303 302 302 302 301 299 297 295 293 292 291 290 289 289 289 288 288 289 290 290 291 293 294 296 299 303 306 309 313 316 319 322 325 327 329 331 332 333 333 334 334 333 333 332 332 332 331 332 334 335 334 331 329 327 325 322 321 320 321 321 323 324 325 325 325 326 326 325 325
300 299 298 298 298 299 300 301 300 300 302 303 303 303 303 303 302 302 302 302 301 300 299 296 294 293 291 289 288 288 287 287 287 289 289 290 290 291 292 294 297 300 303 306 309 312 315 318 321 324 326 329 330 331 332 333 333 333 333 333 332 332 333 334 335 334 333 332 331 329 326 323 322 322 321 322 324 326 327 326 326 327 327 326 327
296 295 295 297 298 300 301 301 301 303 304 304 304 304 304 303 303 303 303 302 301 301 300 298 296 294 292 290 289 288 287 286 287 288 289 290 290 290 291 292 295 298 301 303 306 309 313 315 318 321 324 326 328 329 330 331 332 332 332 331 331 333 335 334 332 332 334 334 331 329 326 325 324 323 323 324 327 328 329 328 328 328 328 328 328
295 296 297 298 300 301 302 302 302 303 303 303 303 303 304 304 304 304 304 303 303 302 301 299 297 295 293 292 292 290 289 287 287 288 289 290 291 291 291 292 293 295 299 301 304 307 310 313 315 318 320 323 325 327 328 329 330 331 331 332 333 334 333 332 331 333 335 334 330 328 327 327 326 325 325 327 329 330 330 330 330 329 329 329 330